sat.trackr.live / text

‹ back to catalog

ECHOSTAR 19

NORAD 41893 · 2016-079A

PAYLOAD ACTIVE UNKNOWN

§ Identity

Operator
Country
US
Launch date
2016-12-18
Launch site
AFETR
Launch vehicle
Mass (kg)
RCS (m²)
7.19

Purposes: comms

External: N2YO · Heavens-Above · Gunter

§ Orbital elements

Epoch: 2026-09-04T03:30:04.298976Z

Period
1,436.12 min
Inclination
0.0161°
Eccentricity
0.0001405
Mean motion
1.00269890 rev/d
Perigee alt
35,781.2 km
Apogee alt
35,793.1 km
Semi-major
42,165.3 km
B*
0.0000e+0
RAAN
139.9131°
Arg perigee
31.3055°
Mean anomaly
127.4679°
Rev number
3,549

§ Raw data

ECHOSTAR 191 41893U 16079A   26247.14588309 -.00000143  00000+0  00000+0 0  99942 41893   0.0161 139.9131 0001405  31.3055 127.4679  1.00269890 35491

JSON: /api/v1/satellites/41893 · /tle

For live sub-satellite position, see the globe view (requires WebGL).

§ Visibility from observer

Set your observer location to see the next 7 days of passes ≥ 10°. The values pass through the URL so the page stays shareable.

No JS? Fill the form by hand. The geolocation button needs JavaScript.